Probability
2 5 7 7 6 7 8 10 14 17 18 17 13 11 12 13 13 11 8 6 7 7 6 7 7 7 6 6 6 6 7 8 8 8 9 8 8 7 6 5 2 3 5
3 6 8 8 8 8 7 10 13 15 18 18 15 13 14 14 13 12 10 8 7 7 7 7 7 7 7 7 6 7 8 9 9 9 8 6 6 6 6 5 3 4 6
5 8 9 11 11 9 8 9 12 14 16 18 18 17 16 14 13 13 11 9 8 8 8 8 8 9 8 8 8 8 8 9 9 8 7 5 4 6 6 5 5 7 7
7 9 11 13 13 10 7 9 13 14 14 16 17 18 18 16 15 14 13 11 9 9 9 10 10 10 10 10 10 10 9 7 7 6 5 4 4 8 9 7 7 8 8
8 10 13 15 14 10 8 9 12 14 14 15 16 18 19 18 16 15 14 12 10 9 9 10 11 11 12 12 11 11 10 8 6 4 4 4 7 10 11 10 9 8 7
10 11 13 15 13 11 9 10 12 13 14 16 18 19 19 17 15 14 13 12 11 9 9 10 11 12 13 13 12 12 11 10 8 5 4 7 12 14 13 10 10 9 8
10 11 14 15 13 12 12 13 14 15 16 18 20 21 19 16 14 12 10 11 12 12 11 12 13 13 13 12 12 12 12 12 9 6 6 10 15 17 14 11 12 12 12
10 12 14 15 15 15 15 15 16 18 19 21 22 22 20 17 15 12 9 9 11 13 14 16 15 14 13 13 12 13 13 12 9 7 7 10 15 18 15 13 13 15 16
11 12 13 14 15 16 17 16 16 19 21 22 22 21 19 17 16 14 11 10 12 15 16 17 16 14 13 13 13 14 14 12 10 8 8 11 17 20 16 12 12 15 17
11 11 12 12 12 14 16 18 18 19 20 20 19 17 16 16 16 15 14 14 16 17 18 18 16 15 14 13 15 16 16 14 11 10 11 15 20 21 16 12 11 13 16
13 11 11 11 10 11 15 18 18 18 19 18 17 17 16 16 15 15 15 16 16 17 19 19 18 17 16 15 16 17 17 14 12 12 15 18 21 21 18 14 12 13 14
15 13 11 10 10 11 15 18 18 18 18 18 18 20 19 18 16 15 15 15 13 14 17 18 18 17 16 16 15 15 15 14 14 15 17 21 23 22 20 18 16 15 15
15 14 12 10 11 13 16 19 19 19 20 19 20 22 21 19 17 16 15 13 10 10 12 14 14 14 13 13 13 12 12 13 16 18 20 25 25 23 21 20 18 18 18
14 13 11 11 13 16 17 19 19 20 20 20 20 21 20 18 17 15 13 10 8 8 9 10 11 12 11 9 8 8 8 12 16 19 21 24 25 24 22 21 19 18 19
12 11 11 12 15 17 18 18 16 15 16 17 18 17 16 16 16 14 11 8 7 7 7 8 9 9 9 7 5 5 6 9 13 16 18 20 21 22 22 21 19 18 17
8 9 10 12 15 17 19 17 12 9 11 13 14 13 13 14 14 13 11 8 7 6 7 7 7 7 7 5 3 3 5 8 10 13 14 16 17 19 20 21 21 19 18
5 7 9 11 14 17 19 16 11 8 9 11 11 10 11 12 12 12 12 9 6 6 6 6 6 6 6 5 3 3 4 6 8 10 11 13 14 16 18 20 21 21 20
6 7 8 10 12 16 18 16 12 9 9 10 9 8 9 10 10 11 11 8 6 5 5 5 4 4 4 4 3 2 2 4 5 6 7 9 11 13 14 16 19 20 20
7 7 8 10 11 14 16 15 12 9 8 8 7 7 7 7 7 8 8 6 5 6 6 5 4 3 3 3 3 2 2 3 4 4 4 6 8 10 11 13 16 17 18
8 9 10 10 12 13 13 12 11 8 6 6 6 6 5 5 5 6 6 5 5 6 7 6 5 4 3 3 3 3 3 4 4 3 3 4 6 7 8 11 13 13 14
10 12 12 11 12 12 12 13 13 10 7 5 5 5 4 4 4 6 6 6 5 6 7 7 5 4 3 3 4 4 3 3 4 4 3 4 4 6 7 9 11 12 13
12 13 13 13 13 13 14 17 17 15 11 6 4 4 4 3 4 6 7 7 6 6 7 8 7 5 4 4 5 5 4 2 1 2 3 4 5 6 8 8 11 14 16
12 13 14 15 15 16 16 18 19 18 14 8 5 4 4 3 4 7 8 8 7 6 7 8 8 6 4 4 5 6 5 3 1 1 2 3 4 7 9 9 9 14 16
9 11 13 15 17 18 17 17 18 18 14 9 6 5 5 5 6 9 10 10 8 7 8 9 8 6 4 4 4 4 5 5 4 3 3 3 5 7 10 10 10 12 14
7 8 10 12 16 18 18 17 17 15 12 8 6 7 6 5 6 10 12 11 10 9 9 9 7 5 4 3 3 3 5 6 6 6 5 6 7 8 11 13 13 12 13
7 8 8 10 14 17 18 18 15 12 10 8 7 7 5 5 6 9 11 12 11 10 9 9 7 5 4 2 2 3 5 6 7 7 7 8 9 9 12 14 14 14 13
Wind_Speed
7 10 14 10 9 8 8 8 9 10 10 10 11 11 11 11 11 11 10 10 10 9 9 8 8 7 7 6 6 5 5 5 5 5 5 5 5 5 5 5 6 6 7
7 11 14 11 9 9 8 8 9 10 10 10 10 10 10 10 10 10 10 9 9 8 8 8 7 7 6 6 5 5 5 5 5 5 6 8 8 6 6 5 6 1 6
8 11 13 11 10 9 9 8 8 9 10 10 10 10 10 9 9 9 9 8 8 7 7 7 7 6 6 5 5 5 5 5 5 5 8 9 9 9 6 6 6 4 5
8 10 11 12 10 9 9 8 8 9 9 10 10 10 10 9 9 8 8 8 7 7 7 6 6 6 6 5 5 5 5 5 5 7 9 7 6 9 7 7 7 7 7
8 9 11 11 10 9 9 8 8 8 8 9 9 9 9 9 8 8 7 7 7 6 6 6 6 6 6 6 5 5 5 6 6 11 9 7 5 7 6 7 8 8 8
8 9 12 11 10 9 9 8 8 8 8 8 8 8 8 8 7 7 7 7 6 6 7 6 6 6 6 6 6 6 7 7 10 11 8 7 6 6 6 8 9 9 9
8 8 11 11 10 9 9 8 7 7 7 7 7 7 7 7 7 7 7 7 7 6 7 7 7 7 7 7 8 8 8 9 12 9 7 8 5 5 6 8 9 9 9
7 8 10 10 10 9 8 8 7 7 6 6 6 6 6 6 7 7 7 7 7 7 7 7 7 7 8 8 9 9 9 11 12 9 8 7 3 5 7 8 9 9 9
7 7 7 9 9 9 8 7 6 6 6 5 5 5 5 6 7 7 7 7 7 7 7 7 7 8 8 9 9 9 9 11 13 8 8 6 4 6 8 9 10 10 10
6 5 5 6 6 6 7 7 6 6 6 5 5 5 5 7 8 8 8 7 6 6 6 7 7 8 9 9 9 9 10 12 13 10 7 4 5 7 9 10 10 10 10
5 4 4 4 4 4 5 7 7 7 6 6 7 7 7 6 5 6 5 4 6 6 7 7 7 8 10 11 11 11 11 9 9 7 6 3 5 8 10 11 11 11 11
5 4 3 3 3 3 3 4 4 4 5 5 3 5 5 3 3 4 3 4 5 7 8 8 9 10 11 7 8 11 7 9 8 6 4 5 7 9 11 11 11 11 11
4 4 3 3 2 2 2 2 2 2 2 4 4 4 3 3 3 3 3 4 5 7 6 6 8 7 6 4 5 6 6 6 5 5 4 6 8 10 11 12 12 12 12
4 4 3 2 2 2 2 2 2 2 2 2 2 4 3 2 3 2 2 3 3 3 3 4 4 5 6 6 7 7 7 6 5 5 4 6 8 10 11 12 12 12 12
3 3 2 2 2 2 2 2 1 2 2 2 2 2 3 3 3 2 2 2 4 3 4 4 4 4 6 7 7 7 8 8 8 7 4 7 9 10 11 11 12 13 12
3 2 2 2 2 2 2 2 2 2 2 2 2 2 3 3 2 3 3 3 3 3 3 4 5 5 5 5 7 7 8 8 8 8 7 6 9 10 11 11 12 12 12
3 3 2 2 2 2 2 3 2 2 2 2 2 2 3 3 3 3 3 3 3 3 3 4 5 5 5 5 6 7 7 8 8 8 8 7 7 9 10 10 11 11 11
3 3 3 2 2 2 2 2 2 2 2 2 2 2 3 3 4 4 3 3 3 3 3 3 4 4 5 5 5 5 6 6 8 8 8 8 7 6 8 10 10 10 11
3 3 3 2 2 2 1 2 2 2 2 2 2 2 2 3 4 4 3 2 4 4 3 4 3 4 5 5 5 5 6 6 6 7 8 8 7 7 6 7 10 10 11
3 3 3 3 2 2 2 2 2 2 2 2 2 1 3 3 4 3 3 2 4 3 3 4 4 4 5 5 6 6 6 6 6 6 7 6 6 7 7 7 7 8 11
3 3 3 2 2 2 2 2 2 2 2 2 2 1 3 3 3 3 3 2 3 3 4 4 5 5 5 4 5 5 5 6 6 5 5 6 6 6 7 7 6 5 6
2 2 2 2 2 3 2 2 2 2 2 1 1 1 3 3 3 2 3 3 3 3 4 4 5 5 4 4 5 5 5 5 5 5 5 5 6 6 6 7 6 6 6
1 1 1 1 2 2 2 1 1 1 2 1 1 1 2 2 2 3 3 4 3 4 3 4 4 5 5 4 4 4 5 5 4 4 5 5 5 5 6 6 7 7 7
1 1 1 0 1 1 1 1 2 2 2 1 2 1 2 2 2 3 3 3 4 4 3 4 3 4 5 5 4 4 5 6 6 5 5 5 5 6 6 6 5 5 6
1 1 1 1 1 1 1 1 2 2 2 1 2 1 2 2 2 2 3 3 3 3 3 4 3 4 4 5 5 5 5 5 8 7 6 5 5 5 5 5 5 5 5
1 1 1 1 1 0 0 1 2 2 2 2 2 2 2 2 2 2 3 3 3 3 3 4 4 5 4 5 6 6 5 5 5 6 7 7 6 5 5 4 5 5 4
Wind_Direction
149 138 140 153 150 144 142 141 144 144 146 148 149 149 150 150 150 154 153 154 153 153 152 152 151 151 153 155 157 157 158 162 161 166 170 171 172 174 179 182 210 195 147
143 139 143 152 150 147 147 147 148 148 148 150 150 150 151 152 152 154 155 158 160 160 160 160 159 160 162 164 167 168 169 174 177 183 189 190 186 188 192 202 237 168 140
136 138 148 152 152 150 149 147 146 147 148 152 153 154 155 155 156 156 159 162 164 166 167 168 169 173 175 175 177 179 182 185 193 201 217 219 184 182 200 210 217 210 188
133 143 146 145 152 150 147 145 145 148 151 153 155 158 159 159 158 161 164 169 172 174 176 179 181 185 188 190 192 198 202 205 209 220 226 225 205 164 196 214 215 214 211
130 137 132 145 148 148 148 149 151 154 155 155 158 162 161 162 164 168 172 175 181 184 186 192 194 199 202 206 209 215 221 225 226 235 236 231 227 151 195 219 220 219 217
136 142 131 144 145 145 150 153 155 158 157 157 159 162 164 169 173 178 182 184 190 197 200 204 206 214 218 223 227 229 233 235 238 234 229 233 228 159 199 223 224 224 223
137 138 134 142 145 147 149 153 157 159 161 161 163 165 172 180 183 188 194 198 204 210 214 214 215 224 226 230 234 237 239 242 251 245 233 230 222 165 206 226 231 230 227
135 136 132 142 145 148 152 155 156 157 159 163 170 176 184 191 195 199 206 211 213 220 224 225 223 227 231 235 240 243 245 249 247 245 241 237 190 185 220 231 233 233 231
132 136 142 150 153 156 157 158 158 157 160 164 172 181 197 204 206 207 210 217 223 230 234 235 235 236 236 237 241 245 249 250 257 245 240 235 164 205 230 234 233 235 234
133 133 139 146 150 166 160 153 157 157 163 172 185 192 205 212 212 213 215 213 227 233 242 243 245 245 244 240 238 240 246 248 249 246 240 214 179 220 233 235 237 236 234
133 133 141 143 152 170 160 148 166 163 173 191 192 196 215 221 217 211 217 204 233 238 243 246 246 250 249 237 233 237 242 243 244 248 244 192 207 230 236 238 239 238 235
143 142 143 152 165 169 156 155 178 181 173 208 203 201 215 213 235 253 164 207 241 247 244 243 246 244 246 240 222 226 239 246 250 245 227 185 222 235 237 238 239 240 238
151 149 149 155 175 181 165 180 185 189 178 203 203 207 212 222 218 237 229 205 223 234 243 233 236 241 250 255 259 245 250 253 251 252 227 196 224 236 238 238 239 240 238
156 157 156 162 179 197 194 193 203 205 209 222 200 221 211 222 231 231 246 265 254 247 257 263 259 257 256 254 251 252 249 250 253 253 229 210 230 239 241 240 240 241 238
164 157 157 182 177 190 200 230 223 237 237 217 230 223 238 234 237 235 244 262 275 275 261 260 262 267 262 251 250 251 254 251 253 253 237 213 230 238 242 242 241 240 239
180 186 177 193 173 194 207 225 231 236 233 250 234 236 244 251 249 253 246 255 268 273 282 274 271 266 261 265 261 255 256 256 250 252 254 224 217 229 238 241 241 239 237
205 201 187 193 183 207 223 232 231 242 246 256 249 236 247 257 254 257 257 255 269 275 270 267 272 268 263 260 263 266 261 256 253 250 253 253 233 218 225 234 239 238 237
216 200 199 212 199 206 224 252 263 263 260 259 262 243 243 253 252 257 263 268 279 266 260 266 267 273 274 272 270 267 264 257 252 247 248 247 248 243 220 219 230 234 234
211 196 195 204 207 209 213 231 244 240 255 263 266 263 251 250 248 257 266 279 270 268 272 275 278 281 280 277 273 267 263 255 254 250 249 250 247 245 247 209 214 228 231
207 190 187 191 193 213 216 216 231 223 228 239 252 266 268 247 247 267 265 268 272 273 274 281 285 277 278 276 279 277 269 263 256 253 252 247 244 242 244 244 223 217 220
202 197 193 195 195 214 227 233 231 233 237 235 243 265 265 262 249 258 279 269 273 273 274 274 276 270 270 276 273 271 261 251 246 249 250 251 242 240 243 243 244 242 215
222 214 206 205 205 227 229 247 252 276 264 259 279 255 264 262 259 250 270 270 274 274 266 269 271 278 280 276 281 285 273 251 229 240 240 244 250 246 243 240 240 240 249
210 208 220 230 225 249 259 245 221 228 236 219 233 234 260 259 255 275 268 276 275 268 267 267 268 270 277 274 270 279 284 281 286 241 241 245 249 251 251 250 241 236 238
212 181 173 182 212 212 229 244 247 263 272 288 281 277 257 240 255 261 266 268 272 274 274 268 276 277 273 274 268 260 270 294 285 275 246 235 243 248 251 251 248 245 247
204 167 149 155 179 185 216 227 247 259 276 279 276 271 266 247 259 270 268 266 269 272 275 284 287 278 274 278 280 272 265 259 261 273 277 267 250 242 241 244 245 247 248
196 179 154 152 143 96 281 266 270 286 293 293 281 276 269 262 258 271 264 262 267 281 277 275 276 270 279 285 283 276 269 266 263 265 270 269 266 257 248 248 246 239 234